| time (UTC) | temp C | wind direction | speed KPH | gust KPH | rain 1hr cm | rain 24hr cm | rain mn cm | humidity % | barometer mb |
| 20260906150014 | 33 | 79 | 1.6 | 6.4 | 0.00 | 0.00 | 0.00 | 63 | 1012.6 |
| 20260906144506 | 32 | 169 | 0.0 | 6.4 | 0.00 | 0.00 | 0.00 | 66 | 1012.6 |
| 20260906143006 | 31 | 38 | 0.0 | 4.8 | 0.00 | 0.00 | 0.00 | 68 | 1012.7 |
| 20260906141601 | 31 | 117 | 0.0 | 4.8 | 0.00 | 0.00 | 0.00 | 70 | 1012.8 |
| 20260906140105 | 30 | 128 | 1.6 | 4.8 | 0.00 | 0.00 | 0.00 | 73 | 1012.8 |
| 20260906134603 | 28 | 213 | 0.0 | 4.8 | 0.00 | 0.00 | 0.00 | 78 | 1012.9 |
| 20260906133046 | 26 | 113 | 0.0 | 1.6 | 0.00 | 0.00 | 0.00 | 82 | 1012.9 |
| 20260906131542 | 26 | 112 | 0.0 | 3.2 | 0.00 | 0.00 | 0.00 | 84 | 1012.9 |
| 20260906130042 | 25 | 113 | 0.0 | 0.0 | 0.00 | 0.00 | 0.00 | 88 | 1012.8 |
| 20260906124538 | 23 | 113 | 0.0 | 0.0 | 0.00 | 0.00 | 0.00 | 90 | 1012.8 |
| 20260906123037 | 22 | 113 | 0.0 | 0.0 | 0.00 | 0.00 | 0.00 | 92 | 1012.7 |
| 20260906121536 | 22 | 113 | 0.0 | 0.0 | 0.00 | 0.00 | 0.00 | 93 | 1012.4 |
| 20260906120035 | 22 | 113 | 0.0 | 0.0 | 0.00 | 0.00 | 0.00 | 93 | 1012.4 |
| 20260906114542 | 22 | 113 | 0.0 | 1.6 | 0.00 | 0.00 | 0.00 | 93 | 1012.0 |
| 20260906113032 | 22 | 112 | 1.6 | 4.8 | 0.00 | 0.00 | 0.00 | 93 | 1012.0 |
| 20260906111531 | 22 | 260 | 0.0 | 0.0 | 0.00 | 0.00 | 0.00 | 92 | 1011.8 |
| 20260906110030 | 22 | 260 | 0.0 | 0.0 | 0.00 | 0.00 | 0.00 | 92 | 1011.4 |
| 20260906104528 | 22 | 260 | 0.0 | 0.0 | 0.00 | 0.00 | 0.00 | 92 | 1011.4 |
| 20260906103026 | 22 | 260 | 0.0 | 0.0 | 0.00 | 0.00 | 0.00 | 92 | 1011.1 |
| 20260906101525 | 22 | 260 | 0.0 | 0.0 | 0.00 | 0.00 | 0.00 | 91 | 1011.4 |
| 20260906100028 | 22 | 260 | 0.0 | 0.0 | 0.00 | 0.00 | 0.00 | 91 | 1011.4 |
| 20260906094522 | 22 | 260 | 0.0 | 0.0 | 0.00 | 0.00 | 0.00 | 90 | 1011.3 |
| 20260906093021 | 23 | 260 | 0.0 | 0.0 | 0.00 | 0.00 | 0.00 | 90 | 1011.2 |
| 20260906091528 | 23 | 260 | 0.0 | 3.2 | 0.00 | 0.00 | 0.00 | 90 | 1011.2 |
| 20260906090021 | 23 | 260 | 0.0 | 0.0 | 0.00 | 0.00 | 0.00 | 90 | 1011.1 |
| 20260906084522 | 23 | 260 | 0.0 | 0.0 | 0.00 | 0.00 | 0.00 | 89 | 1011.1 |
| 20260906083018 | 23 | 260 | 0.0 | 0.0 | 0.00 | 0.00 | 0.00 | 89 | 1011.1 |
| 20260906081519 | 23 | 260 | 0.0 | 1.6 | 0.00 | 0.00 | 0.00 | 89 | 1011.0 |
| 20260906080016 | 23 | 260 | 0.0 | 0.0 | 0.00 | 0.00 | 0.00 | 89 | 1011.1 |
| 20260906074515 | 23 | 260 | 0.0 | 0.0 | 0.00 | 0.00 | 0.00 | 89 | 1011.1 |
| 20260906073017 | 23 | 260 | 0.0 | 0.0 | 0.00 | 0.00 | 0.00 | 88 | 1011.2 |
| 20260906071512 | 23 | 260 | 0.0 | 0.0 | 0.00 | 0.00 | 0.00 | 88 | 1011.3 |
| 20260906070012 | 23 | 260 | 0.0 | 1.6 | 0.00 | 0.00 | 0.00 | 87 | 1011.4 |
| 20260906064520 | 24 | 260 | 0.0 | 0.0 | 0.00 | 0.00 | 0.00 | 87 | 1011.4 |
| 20260906063010 | 24 | 259 | 0.0 | 0.0 | 0.00 | 0.00 | 0.00 | 87 | 1011.5 |
| 20260906061508 | 24 | 259 | 0.0 | 0.0 | 0.00 | 0.00 | 0.00 | 86 | 1011.5 |
| 20260906060007 | 24 | 259 | 0.0 | 0.0 | 0.00 | 0.00 | 0.00 | 84 | 1011.3 |
| 20260906054504 | 25 | 259 | 0.0 | 0.0 | 0.00 | 0.00 | 0.00 | 85 | 1011.3 |
| 20260906053002 | 25 | 259 | 0.0 | 0.0 | 0.00 | 0.00 | 0.00 | 84 | 1011.3 |
| 20260906051559 | 25 | 259 | 0.0 | 0.0 | 0.00 | 0.00 | 0.00 | 82 | 1011.2 |
| 20260906050111 | 25 | 259 | 0.0 | 0.0 | 0.00 | 0.00 | 0.00 | 82 | 1011.0 |
| 20260906044555 | 25 | 259 | 0.0 | 0.0 | 0.00 | 0.00 | 0.00 | 81 | 1010.9 |
| 20260906043057 | 26 | 259 | 0.0 | 0.0 | 0.00 | 0.00 | 0.00 | 80 | 1010.8 |
| 20260906041554 | 26 | 259 | 0.0 | 0.0 | 0.00 | 0.00 | 0.00 | 79 | 1010.9 |
| 20260906040054 | 26 | 259 | 0.0 | 0.0 | 0.00 | 0.00 | 0.00 | 78 | 1011.1 |
| 20260906034559 | 26 | 259 | 0.0 | 0.0 | 0.00 | 0.00 | 0.00 | 77 | 1011.2 |
| 20260906033053 | 27 | 259 | 0.0 | 0.0 | 0.00 | 0.00 | 0.00 | 78 | 1011.2 |
| 20260906031616 | 27 | 259 | 0.0 | 0.0 | 0.00 | 0.00 | 0.00 | 76 | 1011.3 |
| 20260906030052 | 27 | 259 | 0.0 | 0.0 | 0.00 | 0.00 | 0.00 | 75 | 1011.2 |
| 20260906024556 | 28 | 259 | 0.0 | 0.0 | 0.00 | 0.00 | 0.00 | 73 | 1011.1 |
| 20260906023106 | 28 | 259 | 0.0 | 0.0 | 0.00 | 0.00 | 0.00 | 72 | 1010.9 |
| 20260906021550 | 28 | 259 | 0.0 | 0.0 | 0.00 | 0.00 | 0.00 | 70 | 1010.6 |
| 20260906020056 | 29 | 260 | 0.0 | 11.3 | 0.00 | 0.00 | 0.00 | 69 | 1010.3 |
| 20260906014548 | 30 | 161 | 0.0 | 0.0 | 0.00 | 0.00 | 0.00 | 66 | 1010.1 |
| 20260906013047 | 31 | 161 | 0.0 | 0.0 | 0.00 | 0.00 | 0.00 | 65 | 1009.9 |
| 20260906011552 | 31 | 161 | 0.0 | 0.0 | 0.00 | 0.00 | 0.00 | 62 | 1009.7 |
| 20260906010047 | 32 | 161 | 0.0 | 1.6 | 0.00 | 0.00 | 0.00 | 59 | 1009.6 |
| 20260906004553 | 34 | 161 | 0.0 | 1.6 | 0.00 | 0.00 | 0.00 | 55 | 1009.5 |
| 20260906003050 | 35 | 161 | 0.0 | 1.6 | 0.00 | 0.00 | 0.00 | 52 | 1009.4 |
| 20260906001546 | 35 | 161 | 0.0 | 3.2 | 0.00 | 0.00 | 0.00 | 50 | 1009.6 |
| 20260906000047 | 36 | 133 | 0.0 | 9.7 | 0.00 | 0.00 | 0.00 | 48 | 1009.6 |
| 20260905234544 | 36 | 209 | 1.6 | 8.0 | 0.00 | 0.00 | 0.00 | 48 | 1009.5 |
| 20260905233049 | 36 | 165 | 3.2 | 12.9 | 0.00 | 0.00 | 0.00 | 46 | 1009.5 |
| 20260905231542 | 37 | 155 | 0.0 | 12.9 | 0.00 | 0.00 | 0.00 | 46 | 1009.4 |
| 20260905230042 | 37 | 161 | 3.2 | 14.5 | 0.00 | 0.00 | 0.00 | 45 | 1009.5 |
| 20260905224541 | 38 | 142 | 3.2 | 16.1 | 0.00 | 0.00 | 0.00 | 42 | 1009.3 |
| 20260905223040 | 39 | 127 | 3.2 | 6.4 | 0.00 | 0.00 | 0.00 | 36 | 1009.0 |
| 20260905221551 | 39 | 157 | 1.6 | 12.9 | 0.00 | 0.00 | 0.00 | 36 | 1008.9 |
| 20260905220040 | 40 | 134 | 3.2 | 14.5 | 0.00 | 0.00 | 0.00 | 35 | 1008.9 |
| 20260905214538 | 39 | 41 | 0.0 | 8.0 | 0.00 | 0.00 | 0.00 | 36 | 1008.9 |
| 20260905213037 | 39 | 155 | 1.6 | 9.7 | 0.00 | 0.00 | 0.00 | 36 | 1009.0 |
| 20260905211535 | 39 | 82 | 3.2 | 12.9 | 0.00 | 0.00 | 0.00 | 37 | 1009.2 |
| 20260905210033 | 40 | 83 | 1.6 | 9.7 | 0.00 | 0.00 | 0.00 | 37 | 1009.4 |
| 20260905204531 | 38 | 118 | 1.6 | 9.7 | 0.00 | 0.00 | 0.00 | 38 | 1009.6 |
| 20260905203028 | 38 | 69 | 3.2 | 16.1 | 0.00 | 0.00 | 0.00 | 37 | 1009.9 |
| 20260905201527 | 38 | 348 | 6.4 | 20.9 | 0.00 | 0.00 | 0.00 | 37 | 1010.2 |
| 20260905200028 | 39 | 88 | 4.8 | 12.9 | 0.00 | 0.00 | 0.00 | 37 | 1010.2 |
| 20260905194523 | 39 | 275 | 3.2 | 9.7 | 0.00 | 0.00 | 0.00 | 37 | 1010.5 |
| 20260905193019 | 38 | 340 | 8.0 | 16.1 | 0.00 | 0.00 | 0.00 | 38 | 1010.8 |
| 20260905191518 | 38 | 82 | 6.4 | 12.9 | 0.00 | 0.00 | 0.00 | 39 | 1011.1 |
| 20260905190026 | 38 | 44 | 9.7 | 16.1 | 0.00 | 0.00 | 0.00 | 40 | 1011.2 |
| 20260905184516 | 38 | 351 | 9.7 | 17.7 | 0.00 | 0.00 | 0.00 | 40 | 1011.3 |
| 20260905183016 | 38 | 47 | 4.8 | 8.0 | 0.00 | 0.00 | 0.00 | 40 | 1011.6 |
| 20260905181513 | 38 | 236 | 6.4 | 14.5 | 0.00 | 0.00 | 0.00 | 40 | 1011.6 |
| 20260905180009 | 37 | 38 | 3.2 | 19.3 | 0.00 | 0.00 | 0.00 | 41 | 1012.0 |
| 20260905174506 | 37 | 283 | 3.2 | 16.1 | 0.00 | 0.00 | 0.00 | 44 | 1012.1 |
| 20260905173124 | 36 | 58 | 1.6 | 16.1 | 0.00 | 0.00 | 0.00 | 44 | 1012.3 |
| 20260905171600 | 36 | 26 | 12.9 | 17.7 | 0.00 | 0.00 | 0.00 | 43 | 1012.7 |
| 20260905164601 | 36 | 315 | 12.9 | 20.9 | 0.00 | 0.00 | 0.00 | 46 | 1012.9 |
| 20260905163053 | 35 | 333 | 3.2 | 17.7 | 0.00 | 0.00 | 0.00 | 50 | 1012.9 |
| 20260905161554 | 36 | 330 | 8.0 | 17.7 | 0.00 | 0.00 | 0.00 | 49 | 1013.1 |
| 20260905160056 | 35 | 257 | 3.2 | 12.9 | 0.00 | 0.00 | 0.00 | 53 | 1013.3 |
| 20260905154550 | 35 | 309 | 0.0 | 11.3 | 0.00 | 0.00 | 0.00 | 54 | 1013.3 |
| 20260905153042 | 35 | 270 | 9.7 | 16.1 | 0.00 | 0.00 | 0.00 | 55 | 1013.4 |
| 20260905151539 | 34 | 286 | 6.4 | 12.9 | 0.00 | 0.00 | 0.00 | 57 | 1013.3 |